Location: *
(40.7190°N, 4.2480°W)
Time: 09:18:46
(UTC+00:00)

Meteor 1-27 - Pass Details

Date: 18 February 2020
Orbit: 838 x 892 km, 81.3° (Epoch: 27 March)

Event Time Altitude Azimuth Distance (km) Brightness Sun altitude
Rises 05:17:01 0° 190° (S) 3,388 7.2 -21.6°
Reaches altitude 10° 05:19:25 10° 191° (S) 2,453 6.5 -21.2°
Maximum altitude 05:24:59 82° 279° (W) 852 4.1 -20.1°
Drops below altitude 10° 05:30:34 10° 8° (N) 2,461 6.7 -19.1°
Sets 05:32:59 0° 9° (N) 3,401 7.5 -18.6°
